Location: Unspecified
(0.0000°N, 0.0000°E)
Time: 13:13:57
(UTC+00:00)

ISS - Pass Details

Date: 15 June 2021
Orbit: 417 x 422 km, 51.6° (Epoch: 18 June)

Event Time Altitude Azimuth Distance (km) Brightness Sun altitude
Exits shadow 05:03:23 - 183° (S) 1,991 -0.6 -13.1°
Reaches altitude 10° 05:04:58 10° 168° (SSE) 1,496 -1.1 -12.7°
Maximum altitude 05:07:12 17° 126° (SE) 1,156 -1.1 -12.2°
Drops below altitude 10° 05:09:26 10° 84° (E) 1,490 0.3 -11.7°
Sets 05:12:03 0° 63° (ENE) 2,349 2.3 -11.1°
